KICTKLAM

Guest
Details From KICT - Wichita Mid Continent
To KLAM - Los Alamos
Flight Number -
Tags Decoded
Created
Modified
Stats Distance 455 nm / 842 km
Max Altitude 0 ft / 0 m
Waypoints 4
Social Downloads 1
Likes 0
Share VATSIM

Download

Looking for another format? Having issues loading an existing format? Contact us
Advertisement - Login to hide

Notes

Decoded

Route

KICT NAXUE 10308 KLAM

ID Type Via Altitude Latitude Longitude Leg Dist Tot Dist Heading (true) Name
O KICT APT - 0 ft / 0 m 37.65754˚ -97.44007˚ - 0 nm - -
NAXUE FIX - 0 ft / 0 m 36.16138˚ -105.97329˚ 419 nm 419 nm 260° / 255° -
10308 FIX - 0 ft / 0 m 36.12774˚ -106.37850˚ 19 nm 439 nm 264° / 264° -
O KLAM APT - 0 ft / 0 m 35.88144˚ -106.27856˚ 15 nm 454 nm 162° / 162° -

Altitude Profile

Advertisement - Login to hide

Weather


0- 5 10 15 20 25 30 35+ Temperature / ° C

Clouds and Precipitation
Forecast for 2018-05-22 12:00 UTC. Updated 3 hours ago

Ground ~20,000 ft ~40,000 ft Winds

KICT

Details ICAO KICT (ICT)
Name Wichita Mid Continent
Region United States
Timezone America/Chicago (UTC-5.0)
Stats Elevation 1,333 ft / 406 m (AMSL)
Location 37.650182° -97.432173°
Runways 3
Magnetic Variation 3.617° E

METAR

KICT 221353Z 17008KT 10SM FEW200 BKN250 22/19 A3003 RMK AO2 SLP158 T02220189

Decode

TAF

TAF KICT 221120Z 2212/2312 17012KT P6SM SCT250

Decode

Departure Runways

ID Width Length Bearing (true) Bearing (mag) Surface Threshold Offset Overrun Length
01L 151 ft / 46 m 10,317 ft / 3,145 m 19.92° 16.30° Concrete 0 ft / 0 m 200 ft / 61 m
01R 151 ft / 46 m 7,313 ft / 2,229 m 19.93° 16.31° Concrete 0 ft / 0 m 200 ft / 61 m
14 151 ft / 46 m 6,307 ft / 1,922 m 150.10° 146.48° Concrete 0 ft / 0 m 0 ft / 0 m
19L 151 ft / 46 m 7,313 ft / 2,229 m 199.94° 196.32° Concrete 0 ft / 0 m 200 ft / 61 m
19R 151 ft / 46 m 10,317 ft / 3,145 m 199.92° 196.30° Concrete 0 ft / 0 m 200 ft / 61 m
32 151 ft / 46 m 6,307 ft / 1,922 m 330.10° 326.48° Concrete 0 ft / 0 m 0 ft / 0 m

KLAM

Details ICAO KLAM (LAM)
Name LOS ALAMOS
Region United States
Timezone America/Denver (UTC-6.0)
Stats Elevation 7,171 ft / 2,186 m (AMSL)
Location 35.879808° -106.269413°
Runways 1
Magnetic Variation 8.427° E

METAR

KLAM 221355Z AUTO 20005KT 10SM BKN013 BKN030 OVC075 11/08 A3020 RMK AO2 T01050080

Decode

TAF

Not found

Destination Runways

ID Width Length Bearing (true) Bearing (mag) Surface Threshold Offset Overrun Length
09 113 ft / 34 m 5,538 ft / 1,688 m 102.45° 94.02° Asphalt 0 ft / 0 m 0 ft / 0 m
27 113 ft / 34 m 5,538 ft / 1,688 m 282.46° 274.03° Asphalt 0 ft / 0 m 0 ft / 0 m